Terre Haute, IN

6:47 PM EDT on August 25, 2016 (GMT -0400)
Terre Haute International-Hulman

Weather History for KHUF - December, 2013

Change the Weather History Date:

Thursday, December 5, 2013

  Actual Average Record
Temperature  
Mean Temperature 42 °F 35 °F  
Max Temperature 61 °F 43 °F 66 °F (1998)
Min Temperature 23 °F 27 °F 5 °F (1991)
Degree Days  
Heating Degree Days 23 30  
Month to date heating degree days 104 146  
Since 1 July heating degree days 1226 1224  
Cooling Degree Days 0 0  
Month to date cooling degree days 0 0  
Year to date cooling degree days 1056 993  
Moisture  
Dew Point 27 °F    
Average Humidity 76    
Maximum Humidity 88    
Minimum Humidity 63    
Precipitation  
Precipitation 0.24 in 0.09 in 1.30 in (2014)
Month to date precipitation 0.27 0.44  
Year to date precipitation 41.63 42.55  
Sea Level Pressure  
Sea Level Pressure 30.08 in    
Wind  
Wind Speed 11 mph (NW)    
Max Wind Speed 18 mph    
Max Gust Speed 25 mph    
Visibility 6 miles    
Events Fog , Rain , Snow    
T = Trace of Precipitation, MM = Missing Value Source: NWS Daily Summary

Daily Weather History Graph

Daily Weather History Graph

Search for Another Location

Airport or City:

Trip Planner

Search our weather history database for the weather conditions in past years. The results will help you decide how hot, cold, wet, or windy it might be!

Date:

Astronomy

Dec. 05, 2013 Rise Set
Actual Time 7:54 AM EST 5:25 PM EST
Civil Twilight 7:24 AM EST 5:55 PM EST
Nautical Twilight 6:50 AM EST 6:28 PM EST
Astronomical Twilight 6:18 AM EST 7:01 PM EST
Moon 10:14 AM EST (12/5) 8:45 PM EST (12/5)
Length of Visible Light 10h 30m
Length of Day
9h 31m
Waxing Crescent, 10% of the Moon is Illuminated
Dec 5
Waxing Crescent
Dec 9
First Quarter
Dec 17
Full
Dec 25
Last Quarter
Jan 1
New

Hourly Weather History & Observations

Time (EST) Temp. Windchill Dew Point Humidity Pressure Visibility Wind Dir Wind Speed Gust Speed Precip Events Conditions
12:18 AM 55.4 °F - 48.2 °F 77% 29.76 in 10.0 mi WNW 15.0 mph 24.2 mph N/A   Overcast
12:53 AM 53.1 °F - 45.0 °F 74% 29.78 in 10.0 mi WNW 15.0 mph 21.9 mph N/A   Overcast
1:25 AM 51.8 °F - 44.6 °F 76% 29.79 in 10.0 mi WNW 11.5 mph 21.9 mph N/A   Scattered Clouds
1:48 AM 50.0 °F - 44.6 °F 82% 29.80 in 8.0 mi WNW 8.1 mph - N/A   Mostly Cloudy
1:53 AM 50.0 °F - 44.1 °F 80% 29.80 in 8.0 mi WNW 8.1 mph - N/A   Mostly Cloudy
2:53 AM 46.9 °F - 39.9 °F 77% 29.84 in 10.0 mi WNW 15.0 mph - N/A   Overcast
3:53 AM 45.0 °F 40.1 °F 37.0 °F 74% 29.86 in 10.0 mi NW 9.2 mph - N/A   Overcast
4:12 AM 44.6 °F 39.7 °F 35.6 °F 71% 29.86 in 10.0 mi NW 9.2 mph - N/A   Mostly Cloudy
4:53 AM 42.1 °F 35.7 °F 34.0 °F 73% 29.87 in 10.0 mi NW 11.5 mph - N/A   Mostly Cloudy
5:22 AM 41.0 °F 33.5 °F 33.8 °F 76% 29.89 in 10.0 mi WNW 13.8 mph 24.2 mph N/A   Overcast
5:48 AM 39.2 °F 32.5 °F 33.8 °F 81% 29.92 in 10.0 mi WNW 10.4 mph - N/A   Overcast
5:53 AM 39.9 °F 32.5 °F 34.0 °F 79% 29.93 in 10.0 mi WNW 12.7 mph - N/A   Overcast
6:53 AM 37.0 °F 29.3 °F 32.0 °F 82% 29.97 in 9.0 mi WNW 11.5 mph - N/A   Overcast
7:53 AM 34.0 °F 25.5 °F 28.0 °F 79% 29.99 in 9.0 mi NNW 11.5 mph - N/A   Overcast
8:53 AM 33.1 °F 23.9 °F 27.0 °F 78% 30.04 in 10.0 mi WNW 12.7 mph 19.6 mph N/A   Overcast
9:53 AM 32.0 °F 22.1 °F 26.1 °F 79% 30.07 in 9.0 mi NW 13.8 mph 25.3 mph 0.00 in   Overcast
10:26 AM 30.2 °F 19.8 °F 26.6 °F 86% 30.07 in 7.0 mi WNW 13.8 mph - 0.01 in   Overcast
10:53 AM 30.9 °F 21.7 °F 26.1 °F 82% 30.09 in 10.0 mi WNW 11.5 mph - 0.01 in   Overcast
11:07 AM 30.2 °F 19.8 °F 24.8 °F 80% 30.08 in 10.0 mi NW 13.8 mph - 0.00 in Rain Light Freezing Rain
11:30 AM 30.2 °F 21.9 °F 26.6 °F 86% 30.09 in 10.0 mi NW 9.2 mph - 0.00 in   Overcast
11:53 AM 30.9 °F 22.2 °F 26.1 °F 82% 30.12 in 10.0 mi WNW 10.4 mph - 0.00 in   Overcast
12:07 PM 30.2 °F 21.9 °F 26.6 °F 86% 30.10 in 6.0 mi WNW 9.2 mph - 0.01 in Rain Light Freezing Rain
12:41 PM 30.2 °F 21.9 °F 24.8 °F 80% 30.09 in 10.0 mi NW 9.2 mph - 0.01 in   Overcast
12:53 PM 30.9 °F 21.2 °F 25.0 °F 79% 30.09 in 10.0 mi NW 12.7 mph - 0.01 in   Overcast
1:11 PM 30.2 °F 21.9 °F 24.8 °F 80% 30.07 in 10.0 mi NNW 9.2 mph - N/A   Overcast
1:53 PM 30.0 °F 21.1 °F 24.1 °F 79% 30.09 in 9.0 mi WNW 10.4 mph - 0.00 in   Overcast
2:53 PM 30.0 °F 19.5 °F 21.9 °F 72% 30.11 in 10.0 mi NW 13.8 mph - 0.01 in   Overcast
3:53 PM 28.9 °F 20.4 °F 21.9 °F 75% 30.15 in 10.0 mi NW 9.2 mph - N/A   Overcast
4:34 PM 28.4 °F 19.7 °F 19.4 °F 69% 30.16 in 9.0 mi NW 9.2 mph - 0.00 in Snow Light Snow
4:53 PM 28.0 °F 19.3 °F 21.0 °F 75% 30.17 in 6.0 mi NW 9.2 mph - 0.01 in Snow Light Snow
5:05 PM 26.6 °F 18.2 °F 21.2 °F 80% 30.14 in 1.8 mi NNW 8.1 mph - 0.00 in Snow Light Snow
5:14 PM 26.6 °F 19.1 °F 21.2 °F 80% 30.14 in 3.0 mi NNW 6.9 mph - 0.01 in Snow Light Snow
5:53 PM 28.0 °F 18.6 °F 21.0 °F 75% 30.17 in 10.0 mi NW 10.4 mph - 0.01 in   Overcast
6:53 PM 28.0 °F 17.0 °F 18.0 °F 66% 30.19 in 10.0 mi NNW 13.8 mph 19.6 mph N/A   Overcast
7:53 PM 27.0 °F 19.5 °F 19.9 °F 75% 30.25 in 5.0 mi WNW 6.9 mph - 0.00 in Snow Light Snow
7:57 PM 26.6 °F 17.5 °F 19.4 °F 74% 30.24 in 2.0 mi WNW 9.2 mph - 0.00 in Snow Light Snow
8:04 PM 26.6 °F 17.5 °F 21.2 °F 80% 30.22 in 1.0 mi NW 9.2 mph - 0.00 in Snow Light Snow
8:10 PM 24.8 °F 16.1 °F 21.2 °F 86% 30.21 in 0.8 mi NNW 8.1 mph - 0.00 in Snow Light Snow
8:21 PM 24.8 °F 16.9 °F 21.2 °F 86% 30.20 in 1.0 mi NNW 6.9 mph - 0.01 in Snow Light Snow
8:53 PM 25.0 °F 16.3 °F 21.9 °F 88% 30.23 in 0.8 mi NW 8.1 mph - 0.03 in Snow Light Snow
9:15 PM 24.8 °F 15.3 °F 21.2 °F 86% 30.22 in 1.0 mi NNW 9.2 mph - 0.02 in Snow Light Snow
9:28 PM 24.8 °F 16.9 °F 21.2 °F 86% 30.21 in 0.8 mi North 6.9 mph - 0.03 in Snow Light Snow
9:41 PM 24.8 °F 14.6 °F 21.2 °F 86% 30.20 in 0.2 mi North 10.4 mph - 0.06 in Fog , Snow Heavy Snow
9:53 PM 24.1 °F 13.1 °F 19.9 °F 84% 30.23 in 0.5 mi NNW 11.5 mph - 0.08 in Fog , Snow Snow
10:03 PM 24.8 °F 17.9 °F 19.4 °F 80% 30.21 in 1.0 mi NNW 5.8 mph - 0.01 in Snow Light Snow
10:18 PM 24.8 °F 17.9 °F 21.2 °F 86% 30.23 in 0.8 mi NNW 5.8 mph - 0.03 in Snow Light Snow
10:32 PM 24.8 °F 19.1 °F 21.2 °F 86% 30.23 in 1.0 mi NNW 4.6 mph - 0.05 in Snow Light Snow
10:53 PM 24.1 °F 16.0 °F 19.9 °F 84% 30.24 in 1.5 mi NNW 6.9 mph - 0.06 in Snow Light Snow
11:07 PM 24.8 °F 17.9 °F 19.4 °F 80% 30.22 in 1.8 mi NNW 5.8 mph - 0.00 in Snow Light Snow
11:26 PM 24.8 °F 16.9 °F 19.4 °F 80% 30.24 in 1.2 mi NNW 6.9 mph - 0.01 in Snow Light Snow
11:53 PM 23.0 °F 13.1 °F 19.9 °F 88% 30.26 in 1.8 mi NNW 9.2 mph - 0.02 in Snow Light Snow